FW5884 Weather Reports


time (UTC)temp
F
wind
direction
speed
knots
gust
knots
rain 1hr
in
rain 24hr
in
rain mn
in
humidity
%
barometer
mb
20260508005025 54 144 0.0 0.9 0.00 0.00 0.00 83 1015.7
20260508004529 54 236 0.0 0.9 0.00 0.00 0.00 84 1015.8
20260508004025 54 133 0.0 0.9 0.00 0.00 0.00 84 1015.7
20260508003527 54 133 0.0 0.9 0.00 0.00 0.00 84 1015.6
20260508003049 54 142 0.0 0.0 0.00 0.00 0.00 84 1015.6
20260508002527 54 142 0.0 0.9 0.00 0.00 0.00 84 1015.6
20260508002027 55 131 0.0 0.9 0.00 0.00 0.00 83 1015.5
20260508001524 55 147 0.0 0.9 0.00 0.00 0.00 82 1015.4
20260508001023 55 232 0.0 0.9 0.00 0.00 0.00 82 1015.5
20260508000523 55 310 0.0 0.9 0.00 0.00 0.00 82 1015.5
20260508000022 55 42 0.0 0.0 0.00 0.00 0.00 82 1015.6
20260507235522 55 52 0.0 0.9 0.00 0.00 0.00 82 1015.7
20260507235021 55 341 0.0 0.9 0.00 0.00 0.00 82 1015.8
20260507234521 55 48 0.0 0.9 0.00 0.00 0.00 83 1015.9
20260507234020 55 48 0.0 0.9 0.00 0.00 0.00 82 1015.9
20260507233520 55 44 0.0 0.9 0.00 0.00 0.00 81 1015.8
20260507233030 55 356 0.0 0.9 0.00 0.00 0.00 81 1015.8
20260507232521 55 311 0.0 0.0 0.00 0.00 0.00 81 1015.9
20260507232019 56 310 0.0 0.0 0.00 0.00 0.00 80 1015.9
20260507231519 56 319 0.0 0.9 0.00 0.00 0.00 80 1015.7
20260507231021 56 319 0.0 1.7 0.00 0.00 0.00 80 1015.8
20260507230516 56 303 0.0 1.7 0.00 0.00 0.00 79 1015.8
20260507230017 56 329 0.0 1.7 0.00 0.00 0.00 79 1015.9
20260507225521 56 311 0.0 0.9 0.00 0.00 0.00 79 1015.8
20260507225016 56 343 0.0 1.7 0.00 0.00 0.00 80 1015.8
20260507224516 56 312 0.9 1.7 0.00 0.00 0.00 80 1015.9
20260507224014 56 108 0.0 1.7 0.00 0.00 0.00 80 1016.0
20260507223513 56 107 0.0 0.9 0.00 0.00 0.00 80 1016.0
20260507223012 57 68 0.0 0.9 0.00 0.00 0.00 81 1016.1
20260507222512 57 60 0.0 0.9 0.00 0.00 0.00 80 1016.0
20260507222011 57 91 0.0 0.0 0.00 0.00 0.00 80 1016.0
20260507221510 57 94 0.0 0.0 0.00 0.00 0.00 81 1016.0
20260507221012 57 94 0.0 0.0 0.00 0.00 0.00 83 1016.0
20260507220513 57 89 0.0 0.0 0.00 0.00 0.00 85 1016.0
20260507220008 57 88 0.0 0.0 0.00 0.00 0.00 85 1016.1
20260507215507 57 89 0.0 0.0 0.00 0.00 0.00 85 1016.0
20260507215007 57 88 0.0 0.0 0.00 0.00 0.00 85 1015.8
20260507214506 57 88 0.0 0.0 0.00 0.00 0.00 84 1015.9
20260507214006 57 89 0.0 0.0 0.00 0.00 0.00 83 1015.8
20260507213507 57 88 0.0 0.0 0.00 0.00 0.00 83 1015.7
20260507213005 57 90 0.0 0.0 0.00 0.00 0.00 81 1015.7
20260507212504 57 93 0.0 0.0 0.00 0.00 0.00 79 1015.7
20260507212005 57 93 0.0 0.0 0.00 0.00 0.00 79 1015.6
20260507211505 57 68 0.0 0.0 0.00 0.00 0.00 80 1015.6
20260507211004 58 68 0.0 0.0 0.00 0.00 0.00 80 1015.6
20260507210504 57 67 0.0 0.9 0.00 0.00 0.00 78 1015.6
20260507210005 57 113 0.0 0.9 0.00 0.00 0.00 78 1015.5
20260507205503 57 116 0.0 1.7 0.00 0.00 0.00 78 1015.5
20260507205003 57 318 0.0 0.0 0.00 0.00 0.00 79 1015.5
20260507204502 57 317 0.0 0.9 0.00 0.00 0.00 80 1015.4
20260507204002 57 312 0.0 0.9 0.00 0.00 0.00 80 1015.4
20260507203503 57 113 0.0 0.0 0.00 0.00 0.00 82 1015.4
20260507203110 57 113 0.0 0.0 0.00 0.00 0.00 83 1015.3
20260507202559 57 113 0.0 0.9 0.00 0.00 0.00 83 1015.2
20260507202059 57 113 0.0 0.9 0.00 0.00 0.00 83 1015.2
20260507201612 57 106 0.0 0.0 0.00 0.00 0.00 83 1015.1
20260507201058 57 18 0.0 0.0 0.00 0.00 0.00 82 1015.1
20260507200601 57 18 0.0 0.0 0.00 0.00 0.00 83 1014.9
20260507200104 57 18 0.0 0.0 0.00 0.00 0.00 83 1014.9
20260507195559 57 18 0.0 0.0 0.00 0.00 0.00 82 1014.8
20260507195057 57 18 0.0 0.0 0.00 0.00 0.00 81 1014.8
20260507194557 58 18 0.0 0.0 0.00 0.00 0.00 81 1014.9
20260507194056 58 18 0.0 0.0 0.00 0.00 0.00 80 1014.9
20260507193553 58 18 0.0 0.0 0.00 0.00 0.00 80 1014.7
20260507193052 58 18 0.0 0.0 0.00 0.00 0.00 80 1014.7
20260507192551 59 18 0.0 0.0 0.00 0.00 0.00 79 1014.6
20260507192051 59 18 0.0 0.0 0.00 0.00 0.00 79 1014.6
20260507191552 59 18 0.0 0.0 0.00 0.00 0.00 78 1014.5
20260507191049 59 18 0.0 0.0 0.00 0.00 0.00 77 1014.4
20260507190553 59 18 0.0 0.0 0.00 0.00 0.00 76 1014.3
20260507190049 60 18 0.0 0.0 0.00 0.00 0.00 76 1014.1
20260507185547 60 18 0.0 0.0 0.00 0.00 0.00 76 1014.1
20260507185047 60 18 0.0 0.0 0.00 0.00 0.00 75 1014.0
20260507184548 60 18 0.0 0.0 0.00 0.00 0.00 74 1014.0
20260507184048 61 18 0.0 0.0 0.00 0.00 0.00 73 1013.8
20260507183545 61 18 0.0 0.0 0.00 0.00 0.00 73 1013.9
20260507183045 61 18 0.0 0.0 0.00 0.00 0.00 71 1013.7
20260507182544 62 18 0.0 0.0 0.00 0.00 0.00 71 1013.6
20260507182044 62 18 0.0 0.0 0.00 0.00 0.00 70 1013.6
20260507181544 62 18 0.0 0.0 0.00 0.00 0.00 69 1013.6
20260507181044 62 18 0.0 0.0 0.00 0.00 0.00 68 1013.5
20260507180546 63 18 0.0 0.0 0.00 0.00 0.00 67 1013.5
20260507180047 63 18 0.0 0.0 0.00 0.00 0.00 67 1013.6
20260507175543 64 18 0.0 0.0 0.00 0.00 0.00 67 1013.4
20260507175043 64 18 0.0 0.0 0.00 0.00 0.00 67 1013.5
20260507174543 64 18 0.0 0.0 0.00 0.00 0.00 66 1013.5
20260507174042 65 17 0.0 0.0 0.00 0.00 0.00 65 1013.5
20260507173542 65 338 0.0 0.9 0.00 0.00 0.00 65 1013.5
20260507173042 65 360 0.0 0.9 0.00 0.00 0.00 64 1013.4
20260507172544 66 356 0.0 0.9 0.00 0.00 0.00 63 1013.5
20260507172042 66 340 0.0 0.9 0.00 0.00 0.00 62 1013.4
20260507171542 66 2 0.0 0.9 0.00 0.00 0.00 62 1013.5
20260507171042 66 347 0.0 0.0 0.00 0.00 0.00 63 1013.5
20260507170543 65 8 0.0 0.9 0.00 0.00 0.00 62 1013.5
20260507170042 65 261 0.0 0.9 0.00 0.00 0.00 63 1013.4
20260507165541 65 260 0.0 0.9 0.00 0.16 0.00 62 1013.5
20260507165043 65 219 0.0 0.9 0.00 0.16 0.00 63 1013.3
20260507164541 65 151 0.0 0.0 0.00 0.16 0.00 64 1013.5
20260507164041 65 137 0.0 0.9 0.00 0.16 0.00 69 1013.5
20260507163541 65 136 0.0 0.9 0.00 0.16 0.00 68 1013.5
20260507163040 65 141 0.0 0.9 0.00 0.16 0.00 67 1013.5
20260507162540 65 323 0.0 0.0 0.00 0.16 0.00 68 1013.6
20260507162040 65 30 0.0 1.7 0.00 0.16 0.00 68 1013.5
20260507161540 65 258 0.0 1.7 0.00 0.16 0.00 68 1013.5
20260507161038 66 132 0.0 1.7 0.00 0.16 0.00 67 1013.4
20260507160539 66 127 0.0 1.7 0.00 0.16 0.00 66 1013.4
20260507160040 66 122 0.0 1.7 0.00 0.16 0.00 64 1013.5
20260507155539 67 141 0.0 2.6 0.00 0.16 0.00 62 1013.5
20260507155038 67 103 0.0 2.6 0.00 0.16 0.00 60 1013.6
20260507154539 67 126 0.0 0.9 0.00 0.16 0.00 57 1013.6
20260507154038 67 300 0.0 0.9 0.00 0.16 0.00 55 1013.5
20260507153537 67 150 0.0 2.6 0.00 0.16 0.00 54 1013.4
20260507153037 68 136 0.0 4.3 0.00 0.16 0.00 53 1013.5
20260507152536 68 142 0.0 4.3 0.00 0.16 0.00 54 1013.4
20260507152036 69 120 0.0 2.6 0.00 0.16 0.00 53 1013.3
20260507151535 70 133 0.0 4.3 0.00 0.16 0.00 53 1013.0
20260507151034 71 277 0.0 5.2 0.00 0.16 0.00 53 1012.9
20260507150534 71 93 0.0 7.8 0.00 0.16 0.00 57 1012.7
20260507150033 71 68 0.0 3.5 0.00 0.16 0.00 59 1012.5
20260507145532 71 136 0.0 5.2 0.00 0.16 0.00 61 1012.5
20260507145032 71 65 0.9 4.3 0.00 0.16 0.00 60 1012.5
20260507144535 71 103 1.7 3.5 0.00 0.16 0.00 59 1012.4
20260507144031 71 128 0.0 4.3 0.00 0.16 0.00 58 1012.3
20260507143531 72 127 0.9 5.2 0.00 0.16 0.00 57 1012.2
20260507143033 72 115 1.7 5.2 0.00 0.16 0.00 57 1012.2
20260507142530 72 61 0.9 4.3 0.00 0.16 0.00 54 1012.3
20260507142030 72 98 0.0 4.3 0.00 0.16 0.00 59 1012.2
20260507141530 72 25 0.0 6.1 0.00 0.16 0.00 57 1012.2
20260507141029 72 105 0.9 6.1 0.00 0.16 0.00 57 1012.2
20260507140528 73 150 0.9 3.5 0.00 0.16 0.00 50 1012.3
20260507140030 73 122 0.0 3.5 0.00 0.16 0.00 50 1012.4
20260507135528 73 354 0.0 3.5 0.00 0.16 0.00 55 1012.4
20260507135028 73 176 0.0 6.1 0.00 0.16 0.00 56 1012.3
20260507134529 73 113 0.0 6.1 0.00 0.16 0.00 57 1012.4
20260507134030 72 86 1.7 6.1 0.00 0.16 0.00 53 1012.4
20260507133527 73 97 0.0 3.5 0.00 0.16 0.00 56 1012.4
20260507133025 73 149 0.0 6.1 0.00 0.16 0.00 57 1012.4
20260507132525 72 232 0.9 6.1 0.00 0.16 0.00 58 1012.4
20260507132025 73 147 0.0 3.5 0.00 0.16 0.00 59 1012.4
20260507131534 72 90 0.9 4.3 0.00 0.16 0.00 59 1012.5
20260507131024 72 101 0.0 4.3 0.00 0.16 0.00 62 1012.4
20260507130523 72 125 0.9 5.2 0.00 0.16 0.00 58 1012.4
20260507130024 72 170 0.9 5.2 0.00 0.16 0.00 62 1012.5
20260507125523 72 117 0.0 5.2 0.00 0.17 0.00 64 1012.5
20260507125022 73 98 0.9 5.2 0.00 0.17 0.00 60 1012.5
20260507124524 72 168 0.9 3.5 0.00 0.17 0.00 64 1012.6
20260507124026 72 128 0.0 2.6 0.00 0.17 0.00 63 1012.6
20260507123521 72 134 0.0 3.5 0.00 0.17 0.00 62 1012.5
20260507123023 71 126 0.0 4.3 0.00 0.17 0.00 66 1012.5
20260507122517 71 141 0.9 4.3 0.00 0.17 0.00 64 1012.6
20260507122018 72 135 0.9 4.3 0.00 0.17 0.00 65 1012.5
20260507121517 72 120 0.0 4.3 0.00 0.17 0.00 67 1012.6
20260507121017 71 93 0.0 4.3 0.00 0.17 0.00 66 1012.6
20260507120516 71 129 0.0 6.1 0.00 0.17 0.00 65 1012.5
20260507120016 71 330 0.0 5.2 0.00 0.17 0.00 66 1012.6
20260507115518 71 84 0.0 5.2 0.00 0.19 0.00 65 1012.7
20260507115018 71 343 0.9 5.2 0.00 0.19 0.00 65 1012.8
20260507114516 71 141 0.0 4.3 0.00 0.19 0.00 64 1012.7
20260507114015 71 167 0.0 3.5 0.00 0.19 0.00 66 1012.7
20260507113515 71 84 0.0 3.5 0.00 0.19 0.00 64 1012.7
20260507113014 71 139 0.0 3.5 0.00 0.19 0.00 64 1012.8
20260507112513 71 154 0.0 4.3 0.00 0.19 0.00 65 1012.8
20260507112014 71 108 0.0 4.3 0.00 0.19 0.00 64 1012.9
20260507111513 71 351 0.0 5.2 0.00 0.19 0.00 65 1012.9
20260507111012 71 202 0.0 5.2 0.00 0.19 0.00 64 1012.8
20260507110511 70 141 0.9 6.1 0.00 0.19 0.00 65 1012.8
20260507110013 70 131 0.9 5.2 0.00 0.19 0.00 66 1012.9
20260507105511 70 76 0.9 7.0 0.00 0.20 0.00 66 1012.9
20260507105009 70 159 2.6 7.0 0.00 0.20 0.00 64 1013.1
20260507104510 70 97 0.9 6.1 0.00 0.20 0.00 64 1013.1
20260507104010 70 133 0.9 5.2 0.00 0.20 0.00 66 1013.1
20260507103509 70 111 0.9 5.2 0.00 0.20 0.00 67 1013.1
20260507103010 69 150 0.9 9.6 0.00 0.20 0.00 66 1013.1
20260507102509 70 115 1.7 9.6 0.00 0.20 0.00 64 1013.0
20260507102008 70 188 1.7 6.1 0.00 0.20 0.00 65 1013.1
20260507101510 70 127 1.7 4.3 0.00 0.20 0.00 65 1013.1
20260507101008 70 86 0.9 5.2 0.00 0.20 0.00 65 1013.1
20260507100507 70 158 1.7 5.2 0.00 0.20 0.00 66 1013.1
20260507100017 70 53 0.9 5.2 0.00 0.20 0.00 67 1013.1
20260507095506 69 137 0.9 6.1 0.00 0.31 0.00 66 1013.1
20260507095008 69 64 1.7 6.1 0.00 0.31 0.00 67 1013.1
20260507094604 69 241 0.9 7.8 0.00 0.31 0.00 65 1012.9
20260507094003 69 127 0.9 7.8 0.00 0.31 0.00 66 1013.1
20260507093503 69 231 0.9 6.1 0.00 0.31 0.00 68 1012.9
20260507093003 69 122 1.7 4.3 0.00 0.31 0.00 67 1013.0
20260507092505 69 34 0.0 5.2 0.00 0.31 0.00 68 1012.9
20260507092001 69 175 0.9 5.2 0.00 0.31 0.00 69 1013.0
20260507091507 69 87 0.9 4.3 0.00 0.31 0.00 70 1013.0
20260507091001 69 157 0.9 7.0 0.00 0.31 0.00 70 1013.0
20260507090501 68 115 0.9 11.3 0.00 0.31 0.00 69 1013.0
20260507090000 68 160 1.7 11.3 0.00 0.38 0.00 68 1013.0
20260507085601 68 147 0.9 5.2 0.00 0.38 0.00 68 1012.9
20260507085100 68 188 0.9 6.1 0.00 0.38 0.00 68 1012.9
20260507084601 68 162 0.9 6.1 0.00 0.38 0.00 68 1012.8
20260507084059 68 82 0.9 5.2 0.00 0.38 0.00 69 1012.9
20260507083602 68 136 0.9 7.0 0.00 0.38 0.00 69 1012.8
20260507083102 68 233 0.9 7.0 0.00 0.38 0.00 70 1012.8
20260507082557 68 169 0.0 6.1 0.00 0.38 0.00 71 1012.8
20260507082059 67 98 0.9 7.0 0.00 0.38 0.00 71 1012.8
20260507081600 67 123 0.0 7.0 0.00 0.38 0.00 75 1012.7
20260507081057 67 119 0.0 7.0 0.00 0.38 0.00 73 1012.7
20260507080555 68 105 0.9 4.3 0.00 0.38 0.00 71 1012.7
20260507080057 69 101 0.0 2.6 0.00 0.38 0.00 74 1012.6
20260507075557 69 135 0.0 2.6 0.00 0.50 0.00 74 1012.7
20260507075053 68 186 0.0 1.7 0.00 0.50 0.00 75 1012.7
20260507074553 67 101 0.0 5.2 0.00 0.50 0.00 77 1012.7
20260507074053 67 105 0.0 5.2 0.00 0.50 0.00 76 1012.8
20260507073552 67 121 0.9 5.2 0.00 0.50 0.00 76 1012.6
20260507073101 67 129 0.0 0.9 0.00 0.50 0.00 77 1012.6
20260507072552 66 135 0.0 0.0 0.00 0.50 0.00 81 1012.5
20260507072050 65 153 0.0 0.9 0.00 0.50 0.00 80 1012.6
20260507071550 65 138 0.0 1.7 0.00 0.50 0.00 79 1012.6
20260507071050 66 135 0.0 1.7 0.00 0.50 0.00 77 1012.6
20260507070549 66 149 0.0 3.5 0.00 0.50 0.00 77 1012.5
20260507070134 67 140 0.0 4.3 0.00 0.50 0.00 76 1012.4
20260507065547 67 142 0.9 4.3 0.00 0.61 0.00 78 1012.4
20260507065046 66 146 0.0 1.7 0.00 0.61 0.00 80 1012.4
20260507064549 66 158 0.0 3.5 0.00 0.61 0.00 80 1012.4
20260507064045 66 145 0.0 2.6 0.00 0.61 0.00 82 1012.4
20260507063543 65 156 0.0 1.7 0.00 0.61 0.00 83 1012.4
20260507063041 64 138 0.0 2.6 0.00 0.61 0.00 84 1012.4
20260507062539 63 127 0.0 1.7 0.00 0.61 0.00 87 1012.3
20260507062038 62 131 0.0 0.9 0.00 0.61 0.00 87 1012.2
20260507061538 62 139 0.0 0.0 0.00 0.61 0.00 89 1012.3
20260507061036 61 139 0.0 0.9 0.00 0.61 0.00 88 1012.2
20260507060536 61 137 0.0 0.9 0.00 0.61 0.00 88 1012.3
20260507060037 61 137 0.0 0.9 0.00 0.61 0.00 88 1012.3
20260507055535 61 136 0.0 0.9 0.00 0.88 0.00 88 1012.3
20260507055034 61 150 0.0 0.9 0.00 0.88 0.00 89 1012.2
20260507054533 61 139 0.0 1.7 0.00 0.88 0.00 89 1012.1
20260507054032 60 138 0.0 1.7 0.00 0.88 0.00 89 1012.0
20260507053533 60 148 0.0 0.9 0.00 0.88 0.00 90 1012.0
20260507053031 60 132 0.0 0.9 0.00 0.88 0.00 91 1012.0
20260507052530 60 134 0.0 0.9 0.00 0.88 0.00 91 1012.0
20260507052029 60 143 0.0 0.0 0.00 0.88 0.00 92 1012.0
20260507051528 59 140 0.0 0.0 0.00 0.88 0.00 93 1011.9
20260507051027 59 140 0.0 0.0 0.00 0.88 0.00 93 1011.9
20260507050526 59 140 0.0 0.0 0.00 0.88 0.00 93 1011.8
20260507050032 59 140 0.0 0.0 0.00 0.88 0.00 93 1011.8
20260507045529 59 139 0.0 0.0 0.00 0.88 0.00 93 1011.7
20260507045030 59 139 0.0 0.0 0.00 0.88 0.00 93 1011.7
20260507044540 59 139 0.0 0.0 0.00 0.88 0.00 93 1011.7
20260507044026 59 139 0.0 0.0 0.00 0.88 0.00 93 1011.6
20260507043526 59 139 0.0 0.0 0.00 0.88 0.00 93 1011.7
20260507043027 59 139 0.0 0.0 0.00 0.88 0.00 93 1011.5
20260507042526 58 139 0.0 0.0 0.00 0.88 0.00 93 1011.5
20260507042024 58 139 0.0 0.0 0.00 0.88 0.00 93 1011.5
20260507041525 58 139 0.0 0.0 0.00 0.88 0.00 93 1011.5
20260507041025 58 139 0.0 0.0 0.00 0.88 0.00 93 1011.6
20260507040525 58 139 0.0 0.0 0.00 0.88 0.00 92 1011.4
20260507040024 58 139 0.0 0.0 0.00 0.88 0.00 92 1011.4
20260507035524 59 139 0.0 0.0 0.00 0.88 0.00 93 1011.3
20260507035024 58 139 0.0 0.0 0.00 0.88 0.00 93 1011.3
20260507034523 58 139 0.0 0.0 0.00 0.88 0.00 93 1011.4
20260507034023 58 139 0.0 0.0 0.00 0.88 0.00 92 1011.3
20260507033523 58 139 0.0 0.0 0.00 0.88 0.00 92 1011.4
20260507033024 58 139 0.0 0.0 0.00 0.88 0.00 92 1011.3
20260507032523 58 139 0.0 0.0 0.00 0.88 0.00 92 1011.2
20260507032022 58 139 0.0 0.0 0.00 0.88 0.00 92 1011.4
20260507031522 58 139 0.0 0.0 0.00 0.88 0.00 92 1011.3
20260507031024 59 139 0.0 0.0 0.00 0.88 0.00 92 1011.3
20260507030522 59 139 0.0 0.0 0.00 0.88 0.00 92 1011.5
20260507030022 59 139 0.0 0.0 0.00 0.88 0.00 92 1011.4
20260507025522 59 139 0.0 0.0 0.00 0.88 0.00 91 1011.3
20260507025022 59 139 0.0 0.0 0.00 0.88 0.00 91 1011.3
20260507024522 59 139 0.0 0.0 0.00 0.88 0.00 91 1011.4
20260507024022 59 139 0.0 0.9 0.00 0.88 0.00 91 1011.4
20260507023524 59 139 0.0 0.9 0.00 0.88 0.00 91 1011.2
20260507023021 59 141 0.0 0.0 0.00 0.88 0.00 91 1011.3
20260507022521 59 141 0.0 0.9 0.00 0.88 0.00 91 1011.4
20260507022021 59 135 0.0 0.9 0.00 0.88 0.00 91 1011.4
20260507021520 59 137 0.0 0.0 0.00 0.88 0.00 90 1011.4
20260507021020 59 137 0.0 0.0 0.00 0.88 0.00 90 1011.5
20260507020519 60 146 0.0 0.0 0.00 0.88 0.00 90 1011.4
20260507020018 60 148 0.0 3.5 0.00 0.88 0.00 90 1011.3
20260507015516 60 148 0.9 3.5 0.00 0.88 0.00 90 1011.4
20260507015019 60 155 0.0 0.9 0.00 0.88 0.00 90 1011.4
20260507014513 60 132 0.0 0.9 0.00 0.88 0.00 90 1011.3
20260507014012 60 139 0.0 0.0 0.00 0.88 0.00 90 1011.4
20260507013510 60 139 0.0 1.7 0.00 0.88 0.00 90 1011.5
20260507013008 60 139 0.0 1.7 0.00 0.88 0.00 90 1011.4
20260507012511 60 106 0.0 0.0 0.00 0.88 0.00 90 1011.3
20260507012006 60 101 0.0 0.0 0.00 0.88 0.00 90 1011.3
20260507011505 60 115 0.0 0.9 0.00 0.88 0.00 90 1011.3
20260507011004 60 146 0.0 0.0 0.00 0.88 0.00 90 1011.3
20260507010502 60 146 0.0 0.0 0.00 0.88 0.00 90 1011.4
20260507010116 59 146 0.0 0.9 0.00 0.88 0.00 90 1011.3
20260507005600 59 148 0.0 0.9 0.00 0.88 0.00 90 1011.4